Home   Weather   Santa Rosa   Past weeks

Flag for USA Past Weather in Santa Rosa, California, USA — Yesterday and Last 2 Weeks

Now
57 °F

Clear.


Feels Like: 57 °F
Forecast: 51 / 82 °F
Wind: 5 mph from Southeast

Location: Santa Rosa Sonoma County Airport

Current Time: Jul 25, 2017 at 11:52:53 pm

Latest Report: Jul 25, 2017 at 10:53 pm


Visibility: 10 mi

Pressure: 29.98 "Hg

Humidity: 87%

Dew Point: 53 °F

Location of Santa RosaLocation

Past Weather in Santa Rosa — Graph

°F

Santa Rosa Temperature Yesterday

Maximum temperature yesterday: 77 °F (at 2:53 pm)
Minimum temperature yesterday: 53 °F (at 2:53 am)
Average temperature yesterday: 61 °F

High & Low Weather Summary for the Past Weeks

 TemperatureHumidityPressure
High107 °F (Jul 16, 4:53 pm)100% (Jul 13, 2:53 am)30.02 "Hg (Jul 13, 2:53 am)
Low49 °F (Jul 12, 5:53 am)4% (Jul 16, 4:53 pm)29.74 "Hg (Jul 23, 6:53 pm)
Average66 °F66%29.89 "Hg
* Reported Jul 10 9:53 pm — Jul 25 9:53 pm, Santa Rosa. Weather by CustomWeather, © 2017

Note: Actual official high and low records may vary slightly from our data, if they occured in-between our weather recording intervals... More about our weather records

Advertising

Santa Rosa Weather History for the Previous 24 Hours

Scroll right to see more
 ConditionsComfort  
Time TempWeatherWind HumidityBarometerVisibility
9:53 pm
Tue, Jul 25
58 °FClear.3 mph87%29.97 "Hg10 mi
8:53 pm61 °FClear.6 mph81%29.95 "Hg10 mi
7:53 pm66 °FScattered clouds.8 mph68%29.93 "Hg10 mi
6:53 pm70 °FScattered clouds.12 mph57%29.91 "Hg10 mi
5:53 pm74 °FSunny.12 mph52%29.90 "Hg10 mi
4:53 pm76 °FSunny.12 mph48%29.90 "Hg10 mi
3:53 pm77 °FSunny.13 mph47%29.90 "Hg10 mi
2:53 pm79 °FSunny.8 mph42%29.90 "Hg10 mi
1:53 pm78 °FSunny.9 mph45%29.90 "Hg10 mi
12:53 pm76 °FPassing clouds.7 mph47%29.92 "Hg10 mi
11:53 am74 °FPassing clouds.3 mph50%29.93 "Hg10 mi
10:53 am70 °FPassing clouds.3 mph55%29.94 "Hg10 mi
9:53 am64 °FScattered clouds.3 mph70%29.94 "Hg10 mi
9:38 am61 °FPartly sunny.No wind75%29.96 "Hg10 mi
8:53 am61 °FOvercast.No wind75%29.94 "Hg10 mi
8:22 am60 °FOvercast.No wind80%29.96 "Hg10 mi
7:53 am58 °FLow clouds.3 mph87%29.93 "Hg8 mi
6:53 am57 °FLow clouds.3 mph87%29.92 "Hg7 mi
6:14 am56 °FOvercast.No wind90%29.93 "Hg10 mi
5:53 am56 °FLow clouds.No wind90%29.91 "Hg10 mi
4:53 am56 °FLow clouds.3 mph90%29.89 "Hg10 mi
3:53 am55 °FLow clouds.5 mph93%29.88 "Hg10 mi
2:53 am55 °FLow clouds.6 mph93%29.87 "Hg10 mi
1:53 am55 °FLow clouds.5 mph90%29.88 "Hg10 mi
1:05 am55 °FPassing clouds.No wind90%29.90 "Hg10 mi
12:34 am55 °FPassing clouds.5 mph90%29.91 "Hg10 mi
11:53 pm
Mon, Jul 24
55 °FClear.3 mph90%29.88 "Hg10 mi
Weather by CustomWeather, © 2017

See weather overviewHow to use our weather pages